Lid_Strength_Index
10 12 14 13 13 14 14 15 14 13 10 11 12 11 10 8 9 10 10 11 12 10 5 3 3 2 2 2 2 2 2 2 2 2 1 1 1 1 1 1 1 1 1 1
13 15 12 10 12 13 14 16 16 14 11 11 12 12 10 8 8 8 8 10 10 10 10 4 3 3 3 2 2 2 2 2 2 1 2 2 2 1 1 0 0 1 1 1
16 14 11 11 12 14 14 16 16 16 14 13 13 14 12 10 10 8 7 8 10 10 10 6 4 4 3 3 3 3 2 2 2 2 2 2 2 2 1 1 1 1 1 1
14 12 13 13 13 13 16 12 13 14 15 18 13 19 14 11 11 10 8 8 9 10 11 9 4 6 6 6 3 3 2 2 2 2 2 2 2 3 2 1 2 1 1 1
16 13 14 15 13 11 14 12 12 12 13 15 17 17 16 12 12 11 9 8 9 12 12 13 12 11 11 11 9 8 4 4 3 2 1 2 2 2 1 2 2 2 1 1
13 10 12 13 11 11 10 12 13 12 13 19 16 16 19 16 12 10 9 8 11 13 13 13 12 11 11 10 9 8 10 9 9 8 7 5 2 2 3 3 3 2 2 2
14 13 10 10 13 11 12 14 18 20 20 20 15 16 16 14 13 13 10 9 9 12 12 12 11 11 10 10 11 9 9 11 10 9 9 9 8 6 3 2 2 3 3 3
19 21 12 10 13 13 13 14 18 23 21 20 16 18 16 11 14 13 12 11 12 12 12 11 11 11 10 11 10 10 10 10 10 10 10 10 9 6 4 5 4 3 2 2
19 16 10 8 9 10 13 15 12 17 19 18 17 16 14 13 14 13 12 11 11 11 11 11 10 10 10 10 10 10 10 11 11 11 10 10 10 10 9 8 6 6 6 4
12 16 11 10 8 9 11 10 16 15 24 24 19 19 17 15 14 12 12 11 11 10 10 10 10 10 10 11 10 11 11 11 11 11 11 11 11 11 11 10 10 10 9 8
10 13 13 11 13 13 13 14 14 13 17 20 21 20 16 15 12 12 11 10 10 10 10 10 10 10 11 11 11 12 12 12 12 12 11 11 11 11 11 11 11 11 10 10
10 13 16 14 10 9 11 12 13 17 18 18 17 19 13 13 11 10 11 10 11 10 11 11 11 11 11 11 12 13 13 13 13 12 12 12 12 12 12 12 12 12 11 11
10 13 22 17 13 11 13 12 12 12 14 18 20 19 12 11 11 10 11 10 11 11 12 12 13 13 12 12 12 12 12 13 13 12 13 13 13 13 13 13 13 13 13 13
8 13 17 18 16 13 15 14 12 13 16 16 16 16 14 12 12 12 11 11 11 12 12 12 13 13 13 13 13 13 13 13 12 12 12 13 13 13 13 13 13 13 13 13
10 15 13 13 12 13 14 14 13 14 13 15 15 14 13 12 12 11 11 11 12 12 12 13 13 13 14 13 13 14 14 14 13 13 14 14 14 14 14 14 14 13 13 13
10 14 13 16 13 13 15 15 13 12 13 14 12 13 11 12 11 11 11 11 12 12 12 12 12 12 13 13 14 14 14 14 14 14 14 15 15 15 15 15 15 14 14 14
12 14 18 18 15 15 18 16 15 13 12 13 14 11 12 12 11 11 12 11 11 11 11 12 12 12 13 13 14 15 15 14 14 15 15 15 15 15 15 15 15 15 14 14
13 15 19 22 19 23 15 14 13 12 11 11 11 11 10 10 11 11 11 11 11 11 11 11 12 12 13 14 14 15 15 15 15 15 16 16 15 15 15 15 15 15 15 15
11 14 22 23 24 19 17 15 15 15 13 10 11 12 11 11 12 12 11 11 11 11 11 11 12 12 13 14 15 15 15 15 15 15 16 16 16 16 16 16 16 16 15 15
12 14 19 26 25 26 17 15 13 13 17 10 9 11 11 11 13 12 11 11 11 11 11 12 13 13 14 14 15 15 15 15 16 16 16 16 16 16 16 16 16 15 15 15
27 27 23 28 26 21 15 14 13 20 17 11 10 11 11 14 13 12 11 12 12 12 13 13 14 14 14 14 14 15 16 16 15 16 16 16 16 16 16 16 16 16 16 15
21 25 28 29 28 25 14 14 16 14 13 13 13 13 12 12 12 12 12 12 12 13 13 14 14 14 15 15 15 16 16 16 17 17 17 18 18 17 16 16 16 17 17 17
20 16 19 18 18 14 14 14 13 12 13 13 13 13 12 12 12 12 12 12 12 12 12 13 14 15 15 15 15 16 16 17 18 20 21 20 19 18 17 18 17 18 19 19
16 14 17 17 14 14 13 13 13 12 13 12 13 13 12 12 12 12 12 12 12 12 13 14 15 16 16 16 16 16 17 17 21 22 21 20 20 20 19 18 18 19 20 20
16 16 18 17 14 13 13 13 13 13 12 12 12 12 12 12 12 12 12 12 12 12 14 15 15 16 16 17 17 19 18 20 21 21 21 21 21 22 21 20 20 20 18 18
16 16 17 18 14 14 14 13 13 13 12 12 12 13 12 12 12 13 13 13 14 14 16 17 18 19 19 21 21 22 23 23 24 23 23 23 23 23 22 22 22 18 17 16